Content
SEND FEEDBACK

Daily
Averages
Monthly
Summary
United States of America

MAPLE PLAIN, MINNESOTA


Home > North America > United States > Minnesota
Elevation: 1020 feet     Latitude: 45 01N     Longitude: 093 39W

WEATHER
 
SELECT A DAY
Number of Records: 245,410;   Date Range: 6/10/04 - 7/29/14
 
SHARE

PRINT THIS DATA

[ ← Previous Day ]
WEATHER ALMANAC - JANUARY 31, 2013
[ Next Day → ]
[ °C ]   °F
Weather ElementAverageHighLow
Temperature0.2 °F6.4 °F (12:35 am)-8.7 °F (11:35 pm)
Dewpoint-7.3 °F2.1 °F (12:35 am)-16.6 °F (11:15 pm)
Humidity70.9 %84 % (12:54 am)65 % (1:14 pm)
Barometer30.03 in30.27 in (11:35 pm)29.78 in (12:35 am)
Wind Speed13.5 mph18.4 mph (10:35 am)
Wind Gust27.6 mph (4:55 pm)
Weather ElementAverage
Visibility8.9 mi
Wind DirectionWNW (283.2 °)

Weather ElementTotal
Precipitation---
Heating Degree Days66.2 (Base 65)
Averaged from 68 records on January 31, 2013
WEATHER CONDITIONS BREAKOUT
WIND DIRECTION BREAKOUT
WEATHER BY HOUR - JANUARY 31, 2013
[ °C ]   °F
Local TimeTemperatureDewpointHumidityBarometerVisibilityWind DirectionWind SpeedGust SpeedPrecipitationEventsConditions
12:35 AM6.4 °F2.1 °F82 %29.78 in10.0 miWest (270°)9.2 mphOvercast
12:54 AM5.9 °F1.9 °F84 %29.78 in5.0 miWest (270°)10.4 mphSnowLight Snow
1:15 AM5.9 °F1.8 °F83 %29.79 in5.0 miWest (280°)11.5 mphSnowLight Snow
1:34 AM5.5 °F0.9 °F81 %29.79 in10.0 miWest (280°)9.2 mphOvercast
1:54 AM5.4 °F-1.3 °F74 %29.80 in10.0 miWNW (300°)9.2 mphOvercast
2:15 AM5.0 °F-1.8 °F73 %29.81 in10.0 miWNW (300°)13.8 mph18.4 mphOvercast
2:34 AM5.0 °F-1.8 °F73 %29.81 in10.0 miWNW (290°)10.4 mphOvercast
2:54 AM5.0 °F-2.0 °F73 %29.81 in10.0 miWNW (300°)12.7 mph17.3 mphOvercast
3:15 AM4.8 °F-1.7 °F75 %29.82 in10.0 miWest (280°)9.2 mph17.3 mphOvercast
3:34 AM4.3 °F-2.2 °F75 %29.82 in10.0 miWNW (290°)12.7 mph17.3 mphOvercast
3:54 AM4.1 °F-2.2 °F75 %29.82 in10.0 miWest (280°)12.7 mph16.1 mphOvercast
4:15 AM3.9 °F-3.1 °F73 %29.83 in10.0 miWNW (290°)13.8 mph19.6 mphOvercast
4:34 AM3.7 °F-3.3 °F73 %29.84 in10.0 miWest (280°)15.0 mphOvercast
4:54 AM3.9 °F-2.9 °F73 %29.84 in10.0 miWNW (300°)13.8 mph17.3 mphOvercast
5:15 AM3.9 °F-2.4 °F75 %29.85 in10.0 miWNW (290°)10.4 mphOvercast
5:34 AM3.0 °F-3.6 °F74 %29.86 in10.0 miWNW (290°)11.5 mph19.6 mphOvercast
5:55 AM2.3 °F-4.2 °F74 %29.87 in7.0 miWNW (290°)12.7 mph21.9 mphOvercast
6:15 AM1.8 °F-5.3 °F72 %29.88 in7.0 miWNW (290°)13.8 mph23.0 mphOvercast
6:34 AM1.4 °F-4.9 °F75 %29.89 in10.0 miWNW (290°)9.2 mph17.3 mphOvercast
6:55 AM1.0 °F-5.6 °F74 %29.91 in10.0 miWNW (290°)16.1 mphOvercast
7:15 AM0.3 °F-6.7 °F72 %29.91 in10.0 miWest (270°)16.1 mph20.7 mphOvercast
7:34 AM-0.4 °F-7.6 °F72 %29.92 in10.0 miWNW (290°)13.8 mph21.9 mphOvercast
7:55 AM-0.4 °F-7.6 °F72 %29.93 in10.0 miWNW (290°)15.0 mph20.7 mphOvercast
8:15 AM-0.4 °F-7.6 °F72 %29.94 in10.0 miWNW (300°)13.8 mph23.0 mphOvercast
8:34 AM-0.4 °F-7.6 °F72 %29.95 in7.0 miWNW (300°)12.7 mph19.6 mphOvercast
8:55 AM0.0 °F-6.7 °F73 %29.96 in7.0 miWNW (290°)13.8 mph20.7 mphOvercast
9:19 AM0.0 °F-7.6 °F70 %29.98 in10.0 miWNW (290°)15.0 mph19.6 mphScattered Clouds
9:35 AM0.0 °F-6.5 °F74 %29.99 in5.0 miWest (280°)12.7 mphHaze
9:55 AM0.1 °F-7.4 °F70 %30.00 in7.0 miWest (280°)15.0 mph21.9 mphMostly Cloudy
10:14 AM0.1 °F-7.6 °F70 %30.01 in7.0 miWest (280°)16.1 mph21.9 mphScattered Clouds
10:35 AM0.3 °F-7.8 °F69 %30.02 in10.0 miWNW (300°)18.4 mph25.3 mphClear
11:00 AM1.2 °F-7.4 °F67 %30.03 in10.0 miWNW (290°)17.3 mph24.2 mphClear
11:14 AM1.6 °F-6.7 °F68 %30.03 in5.0 miWNW (290°)13.8 mph21.9 mphHaze
11:35 AM1.2 °F-7.2 °F68 %30.04 in5.0 miWest (280°)18.4 mph25.3 mphHaze
11:55 AM1.2 °F-6.2 °F71 %30.04 in4.0 miWNW (300°)16.1 mph20.7 mphHaze
12:14 PM1.2 °F-6.9 °F69 %30.05 in7.0 miWNW (290°)12.7 mph23.0 mphMostly Cloudy
12:35 PM1.2 °F-7.4 °F67 %30.05 in7.0 miWNW (290°)13.8 mph25.3 mphMostly Cloudy
12:55 PM1.9 °F-6.7 °F67 %30.06 in10.0 miWest (280°)16.1 mph20.7 mphScattered Clouds
1:14 PM1.8 °F-7.6 °F65 %30.06 in10.0 miWNW (290°)15.0 mph20.7 mphScattered Clouds
1:35 PM1.8 °F-7.4 °F65 %30.07 in10.0 miWNW (290°)15.0 mph21.9 mphScattered Clouds
1:55 PM2.1 °F-6.7 °F67 %30.08 in7.0 miWest (280°)15.0 mph24.2 mphScattered Clouds
2:14 PM1.9 °F-6.3 °F68 %30.08 in7.0 miWest (270°)17.3 mph21.9 mphScattered Clouds
2:35 PM1.8 °F-5.3 °F72 %30.09 in5.0 miWest (280°)13.8 mph21.9 mphHaze
2:55 PM2.3 °F-7.1 °F65 %30.10 in10.0 miWNW (290°)15.0 mph24.2 mphMostly Cloudy
3:14 PM1.9 °F-6.5 °F68 %30.11 in5.0 miWest (280°)16.1 mph20.7 mphHaze
3:35 PM1.4 °F-6.2 °F71 %30.12 in5.0 miWNW (290°)12.7 mphHaze
3:54 PM1.4 °F-6.9 °F68 %30.13 in10.0 miWest (280°)15.0 mph18.4 mphScattered Clouds
4:14 PM1.4 °F-8.0 °F65 %30.13 in10.0 miWest (280°)18.4 mph24.2 mphClear
4:35 PM0.5 °F-8.7 °F65 %30.14 in10.0 miWest (280°)17.3 mph23.0 mphClear
4:55 PM0.0 °F-9.4 °F65 %30.15 in10.0 miWNW (290°)13.8 mph27.6 mphClear
5:14 PM-0.8 °F-8.7 °F69 %30.16 in10.0 miWest (280°)12.7 mphClear
5:35 PM-1.7 °F-9.6 °F69 %30.17 in10.0 miWest (270°)18.4 mph24.2 mphClear
5:55 PM-2.4 °F-10.3 °F69 %30.19 in10.0 miWest (270°)12.7 mph20.7 mphClear
6:14 PM-3.1 °F-11.2 °F68 %30.19 in10.0 miWest (280°)16.1 mph21.9 mphClear
6:35 PM-3.5 °F-11.4 °F69 %30.19 in10.0 miWest (270°)11.5 mph20.7 mphClear
6:55 PM-4.0 °F-11.7 °F69 %30.20 in10.0 miWest (280°)12.7 mph18.4 mphClear
7:14 PM-4.5 °F-12.1 °F70 %30.21 in10.0 miWest (270°)12.7 mph18.4 mphClear
7:35 PM-5.3 °F-12.6 °F70 %30.21 in10.0 miWest (270°)10.4 mphClear
7:55 PM-5.4 °F-13.0 °F70 %30.23 in10.0 miWest (270°)10.4 mphClear
8:14 PM-6.0 °F-13.2 °F71 %30.23 in10.0 miWest (270°)11.5 mph17.3 mphClear
8:35 PM-6.3 °F-13.5 °F71 %30.24 in10.0 miWest (270°)10.4 mphClear
9:14 PM-6.7 °F-14.8 °F68 %30.24 in10.0 miWest (270°)12.7 mph17.3 mphClear
9:35 PM-7.1 °F-14.8 °F69 %30.25 in10.0 miWest (270°)12.7 mphClear
10:14 PM-7.8 °F-15.7 °F68 %30.26 in10.0 miWest (280°)12.7 mphClear
10:35 PM-8.0 °F-15.9 °F68 %30.26 in10.0 miWest (280°)10.4 mph16.1 mphClear
10:54 PM-8.1 °F-16.1 °F68 %30.26 in10.0 miWest (270°)11.5 mphClear
11:15 PM-8.5 °F-16.6 °F68 %30.26 in10.0 miWest (280°)12.7 mph17.3 mphClear
11:35 PM-8.7 °F-16.2 °F69 %30.27 in10.0 miWest (270°)10.4 mphClear
Hourly data recorded from KCFE, located miles away from Maple Plain, Minnesota







STORIES FROM OUR PARTNERS